Regional Weather Roundup
Issued by NWS

Home | Current Version | Previous Version | Graphics & Text | Print | Product List | Glossary On
Versions: 1 2 3 4 5 6 7 8 9 10 11 12 13 14 15 16 17 18 19 20 21 22 23 24 25 26 27 28 29 30 31 32 33 34 35 36 37 38 39 40 41 42 43 44 45 46 47 48 49 50
000
ASUS45 KBOU 182107
RWRCO

WEATHER ROUNDUP FOR COLORADO
NATIONAL WEATHER SERVICE DENVER/BOULDER CO
300 PM MDT THU SEP 18 2014

NOTE: "FAIR" INDICATES FEW OR NO CLOUDS BELOW 12000 FEET WITH NO
SIGNIFICANT WEATHER AND/OR OBSTRUCTIONS TO VISIBILITY.

COZ001>005-013-030-031-182200-
...NORTHWEST COLORADO...

CITY           SKY/WX    TMP DP  RH WIND       PRES   REMARKS
CRAIG          MOSUNNY   85  38  18 W12       30.02F
HAYDEN         MOSUNNY   82  34  17 NW9       30.05F
MEEKER         MOSUNNY   85  34  16 W7        30.03F
MOUNT WERNER   NOT AVBL
STEAMBOAT SPGS MOSUNNY   80  32  17 NW6       30.07F
WALDEN         SUNNY     73  28  19 SW8       30.17F
$$

COZ006>008-011-182200-
...WEST CENTRAL VALLEYS...

CITY           SKY/WX    TMP DP  RH WIND       PRES   REMARKS
GRAND JUNCTION SUNNY     85  44  23 VRB7      29.93F
MONTROSE       SUNNY     86  40  19 NW9       30.00F
EAGLE          MOSUNNY   82  36  18 SW5       30.05F
RIFLE          SUNNY     83  41  22 W5        29.97F
DELTA          SUNNY     90  32  12 S5        29.94F
NUCLA          SUNNY     82  36  18 N5        30.05F
$$

COZ017>023-064>068-182200-
...SOUTHWEST COLORADO...

CITY           SKY/WX    TMP DP  RH WIND       PRES   REMARKS
DURANGO        SUNNY     82  33  17 SE7G21    30.07F
CORTEZ         SUNNY     83  44  25 S12       30.03F
PAGOSA SPRINGS SUNNY     80  23  12 W6        30.13F
TELLURIDE      NOT AVBL
WOLF CREEK PAS MOSUNNY   59  28  31 S3        30.47F
$$

COZ009-010-012-014-032>034-037-058>063-182200-
...CENTRAL COLORADO...

CITY           SKY/WX    TMP DP  RH WIND       PRES   REMARKS
ASPEN          SUNNY     80  32  17 NW12G17   30.11F
BUENA VISTA    SUNNY     78  22  12 SE8G16    30.16F
COPPER MTN     SUNNY     64  14  14 SE10G26   30.49F
BERTHOUD PASS  PTSUNNY   54  52  94 MISG      30.55F
COTTONWOOD PAS SUNNY     75   9   7 SE15G22   30.32F
GUNNISON       SUNNY     79  32  18 N6        30.14F
KREMMLING      SUNNY     81  23  12 CALM      30.12F
LEADVILLE      SUNNY     68  20  16 S10G22    30.30F
MONARCH PASS   SUNNY     55  28  35 NE18      30.57F
SALIDA         SUNNY     82  28  13 SE10G16   30.19F
SUNLIGHT       MOSUNNY   64  36  34 NW6       30.40F
WILKERSON PASS NOT AVBL
$$

COZ069>075-182200-
...SAN LUIS VALLEY/SANGRE DE CRISTO MOUNTAINS...

CITY           SKY/WX    TMP DP  RH WIND       PRES   REMARKS
ALAMOSA        SUNNY     79  31  17 E7        30.13F
LA VETA PASS   SUNNY     68  28  22 NE14G24   30.35F
SAGUACHE       NOT AVBL
$$

COZ035-036-038>040-182200-
...NORTHERN COLORADO FRONT RANGE...

CITY           SKY/WX    TMP DP  RH WIND       PRES   REMARKS
DENVER INTL AP MOSUNNY   89  35  14 S8        29.97F
DMNS CITY PARK   N/A     88  33  14 S8        29.96F
AURORA         MOSUNNY   87  35  15 E5        30.00F
FRONT RANGE AP MOSUNNY   90  34  13 CALM      29.99F
ERIE MUNI ARPT SUNNY     89  29  11 S3G9      29.95F
BOULDER MUN AP SUNNY     88  36  15 E6        29.96F
CENTENNIAL     MOSUNNY   87  34  15 E5        30.00F
BROOMFIELD     MOSUNNY   90  32  12 S8        30.00F
FORT COLLINS   SUNNY     90  43  19 SE12      29.93F
LONGMONT       SUNNY     92  39  15 E5        29.96F
$$

COZ041-046-047-076>085-087-088-182200-
...PIKES PEAK/PALMER DIVIDE AND SOUTHERN FOOTHILLS...

CITY           SKY/WX    TMP DP  RH WIND       PRES   REMARKS
COLO. SPRINGS  MOSUNNY   85  29  13 S20G26    30.07F
A. F. ACADEMY  SUNNY     83  29  14 SE16G26   30.07F
ELLICOTT       NOT AVBL
FALCON         SUNNY     82  30  15 S13G18    30.13F
FORT CARSON    SUNNY     86  35  16 S16       30.04F
LIMON          SUNNY     88  32  13 SE13G21   30.00F
MONUMENT HILL  SUNNY     81  30  16 S12G20    30.11F
TRINIDAD       SUNNY     84  31  14 E10G25    30.04F
$$

COZ042>045-048>051-090-091-182200-
...NORTHEAST COLORADO...

CITY           SKY/WX    TMP DP  RH WIND       PRES   REMARKS
GREELEY ARPT   SUNNY     90  43  19 S8G17     29.94F
AKRON          SUNNY     87  47  24 E9        29.96F
BURLINGTON     SUNNY     89  47  23 SE12      29.94F
WRAY           SUNNY     87  57  35 SE8       29.92F
STERLING       SUNNY     91  52  25 S9        29.90F
HOLYOKE        SUNNY     81  63  54 S8        29.93F
FORT MORGAN    SUNNY     90  43  19 SE5       29.94F
$$

COZ086-089-092>099-182200-
...SOUTHEAST COLORADO...

CITY           SKY/WX    TMP DP  RH WIND       PRES   REMARKS
PUEBLO         SUNNY     90  33  13 SE15      29.94F
LA JUNTA       SUNNY     93  36  13 SE12G20   29.93F
LAMAR          SUNNY     93  41  16 S14G23    29.90F
SPRINGFIELD      N/A     84  52  33 SE17G26   29.99F
$$


USA.gov is the U.S. government's official web portal to all federal, state and local government web resources and services.